| time (UTC) | temp C | wind direction | speed KPH | gust KPH | rain 1hr cm | rain 24hr cm | rain mn cm | humidity % | barometer mb |
| 20260509095006 | 15 | 155 | 1.6 | 9.7 | 0.00 | 0.00 | 0.00 | 35 | 1021.5 |
| 20260509094007 | 15 | 171 | 1.6 | 11.3 | 0.00 | 0.00 | 0.00 | 33 | 1021.4 |
| 20260509093008 | 15 | 141 | 1.6 | 16.1 | 0.00 | 0.00 | 0.00 | 31 | 1021.5 |
| 20260509092006 | 15 | 120 | 1.6 | 9.7 | 0.00 | 0.00 | 0.00 | 32 | 1021.5 |
| 20260509091005 | 14 | 144 | 6.4 | 16.1 | 0.00 | 0.00 | 0.00 | 32 | 1021.5 |
| 20260509090008 | 14 | 139 | 6.4 | 16.1 | 0.00 | 0.00 | 0.00 | 32 | 1021.6 |
| 20260509085006 | 13 | 108 | 0.0 | 4.8 | 0.00 | 0.00 | 0.00 | 33 | 1021.6 |
| 20260509084006 | 13 | 92 | 1.6 | 9.7 | 0.00 | 0.00 | 0.00 | 35 | 1021.8 |
| 20260509083009 | 12 | 90 | 3.2 | 19.3 | 0.00 | 0.00 | 0.00 | 36 | 1021.7 |
| 20260509082007 | 12 | 112 | 8.0 | 20.9 | 0.00 | 0.00 | 0.00 | 37 | 1021.9 |
| 20260509081006 | 12 | 62 | 1.6 | 4.8 | 0.00 | 0.00 | 0.00 | 40 | 1021.9 |
| 20260509080009 | 11 | 98 | 0.0 | 11.3 | 0.00 | 0.00 | 0.00 | 42 | 1021.9 |
| 20260509075006 | 11 | 131 | 3.2 | 14.5 | 0.00 | 0.00 | 0.00 | 44 | 1021.9 |
| 20260509074007 | 11 | 83 | 1.6 | 11.3 | 0.00 | 0.00 | 0.00 | 45 | 1022.0 |
| 20260509073011 | 10 | 121 | 1.6 | 11.3 | 0.00 | 0.00 | 0.00 | 46 | 1022.0 |
| 20260509072006 | 10 | 106 | 3.2 | 11.3 | 0.00 | 0.00 | 0.00 | 48 | 1022.0 |
| 20260509071007 | 10 | 116 | 4.8 | 14.5 | 0.00 | 0.00 | 0.00 | 49 | 1022.0 |
| 20260509070010 | 10 | 115 | 4.8 | 11.3 | 0.00 | 0.00 | 0.00 | 51 | 1022.1 |
| 20260509065007 | 9 | 75 | 0.0 | 4.8 | 0.00 | 0.00 | 0.00 | 55 | 1022.1 |
| 20260509064006 | 9 | 39 | 0.0 | 4.8 | 0.00 | 0.00 | 0.00 | 55 | 1022.1 |
| 20260509063009 | 8 | 124 | 1.6 | 8.0 | 0.00 | 0.00 | 0.00 | 57 | 1022.1 |
| 20260509062008 | 8 | 60 | 0.0 | 8.0 | 0.00 | 0.00 | 0.00 | 60 | 1022.0 |
| 20260509061006 | 8 | 62 | 0.0 | 4.8 | 0.00 | 0.00 | 0.00 | 63 | 1022.0 |
| 20260509060008 | 7 | 62 | 0.0 | 8.0 | 0.00 | 0.00 | 0.00 | 63 | 1022.1 |
| 20260509055005 | 7 | 68 | 0.0 | 3.2 | 0.00 | 0.00 | 0.00 | 67 | 1022.2 |
| 20260509054006 | 6 | 124 | 0.0 | 3.2 | 0.00 | 0.00 | 0.00 | 71 | 1022.1 |
| 20260509053008 | 6 | 118 | 1.6 | 4.8 | 0.00 | 0.00 | 0.00 | 74 | 1022.2 |
| 20260509052006 | 6 | 97 | 1.6 | 4.8 | 0.00 | 0.00 | 0.00 | 75 | 1022.2 |
| 20260509051006 | 6 | 88 | 0.0 | 0.0 | 0.00 | 0.00 | 0.00 | 76 | 1022.2 |
| 20260509050008 | 5 | 87 | 0.0 | 1.6 | 0.00 | 0.00 | 0.00 | 77 | 1022.2 |
| 20260509045006 | 5 | 95 | 0.0 | 1.6 | 0.00 | 0.00 | 0.00 | 79 | 1022.2 |
| 20260509044005 | 4 | 68 | 0.0 | 0.0 | 0.00 | 0.00 | 0.00 | 81 | 1022.2 |
| 20260509043009 | 3 | 68 | 0.0 | 0.0 | 0.00 | 0.00 | 0.00 | 81 | 1022.1 |
| 20260509042006 | 3 | 68 | 0.0 | 1.6 | 0.00 | 0.00 | 0.00 | 80 | 1022.2 |
| 20260509041006 | 3 | 68 | 0.0 | 0.0 | 0.00 | 0.00 | 0.00 | 80 | 1022.1 |
| 20260509040008 | 3 | 68 | 0.0 | 1.6 | 0.00 | 0.00 | 0.00 | 79 | 1022.1 |
| 20260509035006 | 2 | 73 | 0.0 | 1.6 | 0.00 | 0.00 | 0.00 | 79 | 1022.2 |
| 20260509034006 | 2 | 72 | 0.0 | 0.0 | 0.00 | 0.00 | 0.00 | 79 | 1022.2 |
| 20260509033008 | 2 | 78 | 0.0 | 0.0 | 0.00 | 0.00 | 0.00 | 78 | 1022.3 |
| 20260509032005 | 2 | 79 | 0.0 | 1.6 | 0.00 | 0.00 | 0.00 | 76 | 1022.4 |
| 20260509031006 | 2 | 79 | 0.0 | 1.6 | 0.00 | 0.00 | 0.00 | 75 | 1022.5 |
| 20260509030008 | 2 | 79 | 0.0 | 1.6 | 0.00 | 0.00 | 0.00 | 75 | 1022.4 |
| 20260509025005 | 2 | 81 | 0.0 | 0.0 | 0.00 | 0.00 | 0.00 | 75 | 1022.5 |
| 20260509024006 | 2 | 81 | 0.0 | 0.0 | 0.00 | 0.00 | 0.00 | 75 | 1022.4 |
| 20260509023008 | 3 | 81 | 0.0 | 1.6 | 0.00 | 0.00 | 0.00 | 75 | 1022.4 |
| 20260509022005 | 3 | 91 | 0.0 | 0.0 | 0.00 | 0.00 | 0.00 | 74 | 1022.4 |
| 20260509021006 | 3 | 91 | 0.0 | 0.0 | 0.00 | 0.00 | 0.00 | 74 | 1022.5 |
| 20260509020008 | 3 | 91 | 0.0 | 1.6 | 0.00 | 0.00 | 0.00 | 73 | 1022.5 |
| 20260509015006 | 3 | 101 | 0.0 | 0.0 | 0.00 | 0.00 | 0.00 | 73 | 1022.5 |
| 20260509014006 | 3 | 101 | 0.0 | 0.0 | 0.00 | 0.00 | 0.00 | 72 | 1022.5 |
| 20260509013008 | 3 | 101 | 0.0 | 0.0 | 0.00 | 0.00 | 0.00 | 72 | 1022.7 |
| 20260509012005 | 3 | 101 | 0.0 | 0.0 | 0.00 | 0.00 | 0.00 | 71 | 1022.7 |
| 20260509011006 | 3 | 102 | 0.0 | 0.0 | 0.00 | 0.00 | 0.00 | 70 | 1022.9 |
| 20260509010008 | 3 | 102 | 0.0 | 0.0 | 0.00 | 0.00 | 0.00 | 70 | 1022.9 |
| 20260509005006 | 4 | 102 | 0.0 | 0.0 | 0.00 | 0.00 | 0.00 | 68 | 1022.9 |
| 20260509004006 | 4 | 103 | 0.0 | 1.6 | 0.00 | 0.00 | 0.00 | 67 | 1023.0 |
| 20260509003008 | 4 | 105 | 0.0 | 0.0 | 0.00 | 0.00 | 0.00 | 65 | 1023.0 |
| 20260509002005 | 5 | 105 | 0.0 | 0.0 | 0.00 | 0.00 | 0.00 | 65 | 1023.0 |
| 20260509001006 | 5 | 105 | 0.0 | 0.0 | 0.00 | 0.00 | 0.00 | 65 | 1023.0 |
| 20260509000008 | 5 | 105 | 0.0 | 0.0 | 0.00 | 0.00 | 0.00 | 63 | 1023.1 |
| 20260508235005 | 5 | 105 | 0.0 | 1.6 | 0.00 | 0.00 | 0.00 | 63 | 1023.1 |
| 20260508234005 | 6 | 105 | 0.0 | 1.6 | 0.00 | 0.00 | 0.00 | 61 | 1023.3 |
| 20260508233008 | 6 | 105 | 0.0 | 3.2 | 0.00 | 0.00 | 0.00 | 60 | 1023.4 |
| 20260508232005 | 6 | 106 | 1.6 | 8.0 | 0.00 | 0.00 | 0.00 | 59 | 1023.4 |
| 20260508231005 | 6 | 112 | 3.2 | 16.1 | 0.00 | 0.00 | 0.00 | 59 | 1023.4 |
| 20260508230007 | 6 | 119 | 6.4 | 16.1 | 0.00 | 0.00 | 0.00 | 60 | 1023.3 |
| 20260508225006 | 6 | 120 | 8.0 | 19.3 | 0.00 | 0.00 | 0.00 | 60 | 1023.4 |
| 20260508224006 | 6 | 111 | 3.2 | 12.9 | 0.00 | 0.00 | 0.00 | 63 | 1023.2 |
| 20260508223008 | 6 | 116 | 4.8 | 14.5 | 0.00 | 0.00 | 0.00 | 67 | 1023.2 |
| 20260508222006 | 6 | 115 | 3.2 | 8.0 | 0.00 | 0.00 | 0.00 | 72 | 1023.1 |
| 20260508221005 | 6 | 105 | 1.6 | 4.8 | 0.00 | 0.00 | 0.00 | 74 | 1023.1 |
| 20260508220008 | 6 | 105 | 0.0 | 4.8 | 0.00 | 0.00 | 0.00 | 75 | 1023.1 |
| 20260508215006 | 6 | 129 | 0.0 | 0.0 | 0.00 | 0.00 | 0.00 | 74 | 1023.1 |
| 20260508214006 | 6 | 129 | 0.0 | 0.0 | 0.00 | 0.00 | 0.00 | 73 | 1023.1 |
| 20260508213008 | 6 | 129 | 0.0 | 0.0 | 0.00 | 0.00 | 0.00 | 70 | 1023.0 |
| 20260508212006 | 6 | 129 | 0.0 | 0.0 | 0.00 | 0.00 | 0.00 | 68 | 1023.0 |
| 20260508211006 | 6 | 129 | 0.0 | 0.0 | 0.00 | 0.00 | 0.00 | 67 | 1022.9 |
| 20260508210008 | 6 | 129 | 0.0 | 0.0 | 0.00 | 0.00 | 0.00 | 67 | 1022.9 |
| 20260508205006 | 7 | 129 | 0.0 | 0.0 | 0.00 | 0.00 | 0.00 | 66 | 1022.9 |
| 20260508204006 | 7 | 129 | 0.0 | 0.0 | 0.00 | 0.00 | 0.00 | 63 | 1022.8 |
| 20260508203008 | 7 | 129 | 0.0 | 0.0 | 0.00 | 0.00 | 0.00 | 62 | 1022.6 |
| 20260508202006 | 7 | 129 | 0.0 | 0.0 | 0.00 | 0.00 | 0.00 | 60 | 1022.5 |
| 20260508201005 | 8 | 129 | 0.0 | 0.0 | 0.00 | 0.00 | 0.00 | 58 | 1022.5 |
| 20260508200009 | 8 | 129 | 0.0 | 0.0 | 0.00 | 0.00 | 0.00 | 57 | 1022.5 |
| 20260508195005 | 8 | 129 | 0.0 | 0.0 | 0.00 | 0.00 | 0.00 | 56 | 1022.5 |
| 20260508194005 | 8 | 129 | 0.0 | 1.6 | 0.00 | 0.00 | 0.00 | 55 | 1022.5 |
| 20260508193007 | 9 | 129 | 1.6 | 3.2 | 0.00 | 0.00 | 0.00 | 53 | 1022.1 |
| 20260508192005 | 10 | 129 | 0.0 | 3.2 | 0.00 | 0.00 | 0.00 | 51 | 1022.0 |
| 20260508191005 | 10 | 129 | 0.0 | 4.8 | 0.00 | 0.00 | 0.00 | 50 | 1022.0 |
| 20260508190016 | 10 | 129 | 1.6 | 9.7 | 0.00 | 0.00 | 0.00 | 49 | 1022.0 |
| 20260508185005 | 11 | 138 | 3.2 | 9.7 | 0.00 | 0.00 | 0.00 | 51 | 1022.0 |
| 20260508184006 | 11 | 132 | 3.2 | 8.0 | 0.00 | 0.00 | 0.00 | 52 | 1021.7 |
| 20260508183007 | 11 | 131 | 3.2 | 9.7 | 0.00 | 0.00 | 0.00 | 51 | 1021.6 |
| 20260508182005 | 12 | 149 | 4.8 | 14.5 | 0.00 | 0.00 | 0.00 | 50 | 1021.5 |
| 20260508181005 | 12 | 144 | 8.0 | 14.5 | 0.00 | 0.00 | 0.00 | 50 | 1021.5 |
| 20260508180007 | 12 | 154 | 6.4 | 16.1 | 0.00 | 0.00 | 0.00 | 49 | 1021.5 |
| 20260508175005 | 12 | 152 | 8.0 | 16.1 | 0.00 | 0.00 | 0.00 | 50 | 1021.5 |
| 20260508174005 | 12 | 160 | 8.0 | 19.3 | 0.00 | 0.00 | 0.00 | 49 | 1021.5 |
| 20260508173008 | 12 | 148 | 9.7 | 19.3 | 0.00 | 0.00 | 0.00 | 48 | 1021.4 |
| 20260508172006 | 12 | 163 | 6.4 | 20.9 | 0.00 | 0.00 | 0.00 | 47 | 1021.4 |
| 20260508171005 | 12 | 151 | 3.2 | 19.3 | 0.00 | 0.00 | 0.00 | 46 | 1021.3 |
| 20260508170007 | 12 | 154 | 9.7 | 19.3 | 0.00 | 0.00 | 0.00 | 44 | 1021.2 |
| 20260508165005 | 13 | 150 | 4.8 | 19.3 | 0.00 | 0.00 | 0.00 | 43 | 1021.2 |
| 20260508164005 | 13 | 152 | 4.8 | 19.3 | 0.00 | 0.00 | 0.00 | 42 | 1021.3 |
| 20260508163008 | 13 | 160 | 4.8 | 19.3 | 0.00 | 0.00 | 0.00 | 41 | 1021.2 |
| 20260508162005 | 13 | 165 | 9.7 | 19.3 | 0.00 | 0.00 | 0.00 | 39 | 1021.2 |
| 20260508161005 | 13 | 150 | 9.7 | 22.5 | 0.00 | 0.00 | 0.00 | 38 | 1021.3 |
| 20260508160007 | 14 | 150 | 9.7 | 19.3 | 0.00 | 0.00 | 0.00 | 37 | 1021.2 |
| 20260508155005 | 14 | 148 | 9.7 | 19.3 | 0.00 | 0.00 | 0.00 | 37 | 1021.1 |
| 20260508154005 | 14 | 140 | 11.3 | 25.7 | 0.00 | 0.00 | 0.00 | 37 | 1021.0 |
| 20260508153008 | 15 | 143 | 12.9 | 27.4 | 0.00 | 0.00 | 0.00 | 39 | 1021.1 |
| 20260508152006 | 15 | 146 | 9.7 | 25.7 | 0.00 | 0.00 | 0.00 | 37 | 1021.2 |
| 20260508151005 | 15 | 130 | 9.7 | 24.1 | 0.00 | 0.00 | 0.00 | 38 | 1021.3 |
| 20260508150009 | 15 | 146 | 11.3 | 27.4 | 0.00 | 0.00 | 0.00 | 39 | 1021.3 |
| 20260508145005 | 15 | 140 | 16.1 | 27.4 | 0.00 | 0.00 | 0.00 | 38 | 1021.4 |
| 20260508144005 | 16 | 142 | 11.3 | 27.4 | 0.00 | 0.00 | 0.00 | 37 | 1021.5 |
| 20260508143009 | 16 | 149 | 11.3 | 24.1 | 0.00 | 0.00 | 0.00 | 39 | 1021.5 |
| 20260508142006 | 16 | 120 | 8.0 | 29.0 | 0.00 | 0.00 | 0.00 | 36 | 1021.5 |
| 20260508141006 | 16 | 136 | 9.7 | 25.7 | 0.00 | 0.00 | 0.00 | 37 | 1021.5 |
| 20260508140008 | 16 | 121 | 3.2 | 20.9 | 0.00 | 0.00 | 0.00 | 36 | 1021.5 |
| 20260508135006 | 16 | 136 | 11.3 | 24.1 | 0.00 | 0.00 | 0.00 | 35 | 1021.5 |
| 20260508134006 | 16 | 157 | 11.3 | 24.1 | 0.00 | 0.00 | 0.00 | 38 | 1021.5 |
| 20260508133008 | 16 | 146 | 8.0 | 24.1 | 0.00 | 0.00 | 0.00 | 37 | 1021.5 |
| 20260508132006 | 16 | 132 | 8.0 | 24.1 | 0.00 | 0.00 | 0.00 | 37 | 1021.6 |
| 20260508131006 | 16 | 145 | 11.3 | 19.3 | 0.00 | 0.00 | 0.00 | 37 | 1021.6 |
| 20260508130008 | 16 | 107 | 3.2 | 20.9 | 0.00 | 0.00 | 0.00 | 37 | 1021.6 |
| 20260508125006 | 16 | 159 | 8.0 | 20.9 | 0.00 | 0.00 | 0.00 | 39 | 1021.6 |
| 20260508124006 | 16 | 170 | 9.7 | 22.5 | 0.00 | 0.00 | 0.00 | 39 | 1021.6 |
| 20260508123008 | 16 | 158 | 8.0 | 19.3 | 0.00 | 0.00 | 0.00 | 39 | 1021.8 |
| 20260508122006 | 16 | 149 | 14.5 | 24.1 | 0.00 | 0.00 | 0.00 | 40 | 1021.9 |
| 20260508121005 | 16 | 143 | 8.0 | 22.5 | 0.00 | 0.00 | 0.00 | 39 | 1021.8 |
| 20260508120008 | 16 | 149 | 9.7 | 19.3 | 0.00 | 0.00 | 0.00 | 39 | 1021.8 |
| 20260508115006 | 16 | 144 | 3.2 | 22.5 | 0.00 | 0.00 | 0.00 | 40 | 1021.8 |
| 20260508114006 | 16 | 149 | 8.0 | 19.3 | 0.00 | 0.00 | 0.00 | 37 | 1021.8 |
| 20260508113009 | 15 | 158 | 8.0 | 22.5 | 0.00 | 0.00 | 0.00 | 38 | 1021.9 |
| 20260508112006 | 15 | 152 | 12.9 | 22.5 | 0.00 | 0.00 | 0.00 | 37 | 1021.9 |
| 20260508111006 | 15 | 135 | 6.4 | 20.9 | 0.00 | 0.00 | 0.00 | 38 | 1021.9 |
| 20260508110008 | 15 | 154 | 11.3 | 24.1 | 0.00 | 0.00 | 0.00 | 37 | 1021.8 |
| 20260508105006 | 15 | 130 | 12.9 | 24.1 | 0.00 | 0.00 | 0.00 | 34 | 1021.9 |
| 20260508104005 | 15 | 132 | 8.0 | 27.4 | 0.00 | 0.00 | 0.00 | 34 | 1021.8 |
| 20260508103008 | 15 | 122 | 14.5 | 24.1 | 0.00 | 0.00 | 0.00 | 35 | 1021.8 |
| 20260508102006 | 15 | 141 | 16.1 | 27.4 | 0.00 | 0.00 | 0.00 | 38 | 1021.8 |
| 20260508101006 | 15 | 136 | 14.5 | 25.7 | 0.00 | 0.00 | 0.00 | 38 | 1021.8 |
| 20260508100008 | 15 | 149 | 14.5 | 25.7 | 0.00 | 0.00 | 0.00 | 42 | 1021.8 |